Weather in Batayurt

Russia / Republic of Dagestan     43°18′52″N   46°40′51″E
temp.,
°C
wind,
m/s
gust,
m/s
humid.,
%
clouds,
%
prec.,
mm/h
press.,
hPa
HPBL,
m
13 may, thu
thu1300:00+11ese22800 0.0 101423
03:00+10e22833 0.0 101419
06:00+12e24791 0.0 1013128
09:00+18ene33600 0.0 1014531
12:00+23ene33490 0.0 1014816
15:00+23ene435569 0.4 1013668
18:00+17e467319 1.5 1014197
21:00+13ese128533 1.6 101524
14 may, fri
fri1400:00+13e1187100 0.0 101413
03:00+13ese22874 0.0 101324
06:00+16n117813 0.0 101448
09:00+22e23590 0.0 1013384
12:00+31ese79310 0.0 10111279
15:00+29e1014370 0.0 1010842
18:00+23e815491 0.0 1010336
21:00+19ese3656100 0.0 1011102
15 may, sat
sat1500:00+18ese34560 0.0 101164
03:00+16sse11570 0.0 101111
06:00+19w00590 0.0 101227
09:00+25ne12460 0.0 1013558
12:00+31ese55230 0.0 10121545
15:00+29e911250 0.0 1011815
18:00+22e611430 0.0 1011199
21:00+19ese464144 0.0 101278
16 may, sun
sun1600:00+18se23495 0.0 101136
03:00+17ese335692 0.0 101142
06:00+18ese23636 0.0 101085
09:00+28ese58345 0.0 10091140
12:00+30ese1011272 0.0 10071460
15:00+29ese1114320 0.0 10061022
18:00+24ese1017400 0.0 1005451
21:00+23ese816340 0.0 1005450
17 may, mon
mon1700:00+21ese510400 0.0 1005268
03:00+17ese24516 0.0 100554
06:00+18ese11555 0.0 100547
09:00+26e46336 0.0 1005745
12:00+30e882990 0.0 1004995
15:00+27e911360 0.0 1004592
18:00+22e711520 0.0 1004214
21:00+17ese12630 0.0 100632